San Andres de Giles, Argentina
Current Conditions -  °F | °C
As of 11:00 AM on Wednesday 26 Nov 2014 (Local Time) from SADF Reporting Station
Clear Clear  
Wind Chill: 70°   Ceiling: Unl
Heat Index: 70°   Visibility: 6mi
Dew Point: 57°   Wind: 3mph
Humidity: 64%   Direction: NA
Pressure: 29.97"   Gusts: NA
Location:  34.45°S, 59.45°W
Report Text: SADF 261400Z VRB03KT CAVOK 21/14 Q1015
Loading
Personal Weather Stations






























Interactive Weather Map New forecast layout! Learn more

10-Day Weather Forecast

Advertisements
Track Severe Weather on mobile